SCP
0 0 0 0 0 0 0 0 0 0 0 0 0 0 0 0 0 0 0 0 0 0 0 0 0 0 0 0 0 0 0 0 0 0 0 0 0 0 0 0 0 0 0 0
0 0 0 0 0 0 0 0 0 0 0 0 0 0 0 0 0 0 0 0 0 0 0 0 0 0 0 0 0 0 0 0 0 0 0 0 0 0 0 0 0 0 0 0
0 0 0 0 0 0 0 0 0 0 0 0 0 0 0 0 0 0 0 0 0 0 0 0 0 0 0 0 0 0 0 0 0 0 0 0 0 0 0 0 0 0 0 0
0 0 0 0 0 0 0 0 0 0 0 0 0 0 0 0 0 0 0 0 0 0 0 0 0 0 0 0 0 0 0 0 0 0 0 0 0 0 0 0 0 0 0 0
0 0 0 0 0 0 0 0 0 0 0 0 0 0 0 0 0 0 0 0 0 0 0 0 0 0 0 0 0 0 0 0 0 0 0 0 0 0 0 0 0 0 0 0
0 0 0 0 0 0 0 0 0 0 0 0 0 0 0 0 0 0 0 0 0 0 0 0 0 0 0 0 0 0 0 0 0 0 0 0 0 0 0 0 0 0 0 0
0 0 0 0 0 0 0 0 0 0 0 0 0 0 0 0 0 0 0 0 0 0 0 0 0 0 0 0 0 0 0 0 0 0 0 0 0 0 0 0 0 0 0 0
0 0 0 0 0 0 0 0 0 0 0 0 0 0 0 0 0 0 0 0 0 0 0 0 0 0 0 0 0 0 0 0 0 0 0 0 0 0 0 0 0 0 0 0
0 0 0 0 0 0 0 0 0 0 0 0 0 0 0 0 0 0 0 0 0 0 0 0 0 0 0 0 0 0 0 0 0 0 0 0 0 0 0 0 0 0 0 0
0 0 0 0 0 0 0 0 0 0 0 0 0 0 0 0 0 0 0 0 0 0 0 0 0 0 0 0 0 0 0 0 0 0 0 0 0 0 0 0 0 0 0 0
0 0 0 0 0 0 0 0 0 0 0 0 0 0 0 0 0 0 0 0 0 0 0 0 0 0 0 0 0 0 0 0 0 0 0 0 0 0 0 0 0 0 0 0
0 0 0 0 0 0 0 0 0 0 0 0 0 0 0 0 0 0 0 0 0 0 0 0 0 0 0 0 0 0 0 0 0 0 0 0 0 0 0 0 0 0 0 0
0 0 0 0 0 0 0 0 0 0 0 0 0 0 0 0 0 0 0 0 0 0 0 0 0 0 0 0 0 0 0 0 0 0 0 0 0 0 0 0 0 0 0 0
0 0 0 0 0 0 0 0 0 0 0 0 0 0 0 0 0 0 0 0 0 0 0 0 0 0 0 0 0 0 0 0 0 0 0 0 0 0 0 0 0 0 0 0
0 0 0 0 0 0 0 0 0 0 0 0 0 0 0 0 0 0 0 0 0 0 0 0 0 0 0 0 0 0 0 0 0 0 0 0 0 0 0 0 0 0 0 0
0 0 0 0 0 0 0 0 0 0 0 0 0 0 0 0 0 0 0 0 0 0 0 0 0 0 0 0 0 0 0 0 0 0 0 0 0 0 0 0 0 0 0 0
0 0 0 0 0 0 0 0 0 0 0 0 0 0 0 0 0 0 0 0 0 0 0 0 0 0 0 0 0 0 0 0 0 0 0 0 0 0 0 0 0 0 0 0
0 0 0 0 0 0 0 0 0 0 0 0 0 0 0 0 0 0 0 0 0 0 0 0 0 0 0 0 0 0 0 0 0 0 0 0 0 0 0 0 0 0 0 0
0 0 0 0 0 0 0 0 0 0 0 0 0 0 0 0 0 0 0 0 0 0 0 0 0 0 0 0 0 0 0 0 0 0 0 0 0 0 0 0 0 0 0 0
0 0 0 0 0 0 0 0 0 0 0 0 0 0 0 0 0 0 0 0 0 0 0 0 0 0 0 0 0 0 0 0 0 0 0 0 0 0 0 0 0 0 0 0
0 0 0 0 0 0 0 0 0 0 0 0 0 0 0 0 0 0 0 0 0 0 0 0 0 0 0 0 0 0 0 0 0 0 0 0 0 0 0 0 0 0 0 0
0 0 0 0 0 0 0 0 0 0 0 0 0 0 0 0 0 0 0 0 0 0 0 0 0 0 0 0 0 0 0 0 0 0 0 0 0 0 0 0 0 0 0 0
0 0 0 0 0 0 0 0 0 0 0 0 0 0 0 0 0 0 0 0 0 0 0 0 0 0 0 0 0 0 0 0 0 0 0 0 0 0 0 0 0 0 0 0
0 0 0 0 0 0 0 0 0 0 0 0 0 0 0 0 0 0 0 0 0 0 0 0 0 0 0 0 0 0 0 0 0 0 0 0 0 0 0 0 0 0 0 0
0 0 0 0 0 0 0 0 0 0 0 0 0 0 0 0 0 0 0 0 0 0 0 0 0 0 0 0 0 0 0 0 0 0 0 0 0 0 0 0 0 0 0 0
0 0 0 0 0 0 0 0 0 0 0 0 0 0 0 0 0 0 0 0 0 0 0 0 0 0 0 0 0 0 0 0 0 0 0 0 0 0 0 0 0 0 0 0
0 0 0 0 0 0 0 0 0 0 0 0 0 0 0 0 0 0 0 0 0 0 0 0 0 0 0 0 0 0 0 0 0 0 0 0 0 0 0 0 0 0 0 0
Wind_Speed
17 16 15 16 17 16 18 18 19 22 24 23 19 18 17 15 14 14 12 11 10 9 10 9 8 7 7 7 6 5 5 6 7 8 8 8 9 10 11 12 13 13 13 13
15 16 17 20 21 21 22 22 24 25 27 21 19 17 16 15 13 13 12 11 10 10 10 10 9 8 7 7 6 6 6 6 6 6 7 8 8 9 9 10 11 12 12 12
13 13 14 18 19 21 20 19 19 23 23 18 17 15 15 14 13 12 12 11 11 11 10 10 9 9 8 8 7 5 6 6 6 6 7 7 7 8 9 9 10 11 11 12
9 9 16 11 6 12 16 18 18 19 18 16 16 15 14 13 11 11 11 11 11 10 10 10 9 9 8 7 6 6 6 6 5 5 6 6 7 8 8 7 8 9 10 10
7 11 16 14 9 8 11 15 13 15 16 15 14 13 12 9 9 10 10 10 10 10 10 10 9 9 8 7 6 6 6 6 5 5 5 6 7 7 7 6 7 7 8 9
10 11 13 8 3 5 8 13 8 10 12 11 9 9 8 7 8 9 10 9 9 10 10 9 8 7 7 7 6 6 6 6 6 5 5 6 6 6 5 5 6 5 6 7
16 14 13 8 3 4 8 7 2 4 7 7 8 9 9 9 9 10 11 10 10 9 9 8 8 6 6 6 7 7 6 6 5 5 5 5 5 4 4 4 5 5 5 6
11 14 14 4 5 8 7 5 5 6 7 8 9 10 10 10 10 11 11 11 10 8 8 7 7 6 6 7 7 6 5 5 5 5 4 3 3 4 4 4 5 5 5 5
10 11 7 5 8 8 7 8 9 9 9 9 10 12 12 12 11 11 10 10 8 8 8 7 6 6 7 7 6 6 5 5 5 4 4 3 3 3 3 4 4 4 4 5
13 15 14 13 12 11 10 11 11 10 11 11 12 12 12 11 10 10 9 8 7 7 7 7 7 6 6 6 6 5 5 5 5 4 4 3 3 3 3 4 4 4 4 4
18 18 16 15 14 14 12 12 12 12 11 11 11 12 11 10 9 8 8 7 7 7 7 8 7 6 6 5 5 5 5 5 4 4 4 3 3 2 3 4 4 4 4 4
16 15 13 14 12 12 13 13 13 12 12 11 10 11 10 9 8 8 7 7 7 7 7 7 7 7 6 5 5 5 5 4 3 3 3 3 2 2 2 2 2 3 4 4
20 19 17 17 15 13 13 12 12 12 11 11 10 9 9 8 7 7 7 7 7 7 7 7 7 7 6 5 5 4 4 4 3 3 3 3 2 2 2 1 0 2 2 3
15 14 16 15 13 11 11 11 10 10 10 9 8 8 7 8 7 7 7 7 7 7 7 7 7 7 7 6 5 5 4 4 4 3 3 3 3 2 2 2 1 0 1 3
13 13 13 11 11 10 8 8 8 8 8 7 6 6 7 7 7 6 6 6 6 6 6 6 7 7 7 6 5 5 4 3 3 3 3 3 2 2 1 1 1 0 1 2
9 9 10 10 10 9 7 7 7 8 7 7 6 6 6 6 6 6 6 5 5 6 6 6 6 7 7 6 6 4 4 4 4 3 2 2 2 1 1 1 1 1 1 1
7 8 8 8 8 7 7 7 7 7 6 6 6 6 5 5 6 5 5 4 5 5 6 6 6 6 6 6 5 4 3 3 3 3 2 2 2 1 1 1 1 1 1 2
5 6 6 6 6 7 7 6 6 6 6 6 6 5 5 5 6 6 5 5 5 5 5 5 6 6 6 6 5 3 3 3 3 2 2 2 2 1 1 1 1 2 1 2
3 3 4 5 5 5 5 5 5 5 5 5 5 5 5 5 5 5 5 5 5 6 5 5 7 6 5 5 5 3 3 3 2 2 2 2 2 1 1 1 1 1 2 2
2 2 3 3 3 3 4 4 5 5 4 4 4 5 5 5 4 4 4 5 4 4 5 6 6 5 5 5 5 3 3 2 2 2 1 1 1 1 1 1 1 2 2 2
1 2 2 3 3 3 3 4 4 5 4 4 4 5 5 5 4 4 4 4 4 4 5 6 4 4 4 4 4 3 2 2 1 1 1 1 1 0 1 1 1 1 2 2
1 2 2 2 3 3 4 4 4 4 4 4 4 4 4 3 3 3 3 4 4 5 4 3 3 4 4 4 2 2 2 1 1 1 1 1 1 1 1 1 1 1 2 2
2 2 2 3 3 4 4 4 4 4 4 4 4 4 3 3 2 2 3 3 3 4 4 3 4 5 6 3 2 2 2 1 1 1 0 0 0 1 1 1 1 2 2 2
2 2 3 3 3 3 4 4 4 3 3 4 3 3 3 2 2 2 3 3 4 5 3 4 5 5 5 2 2 2 1 1 1 1 0 0 0 1 1 1 1 2 2 2
2 2 3 3 3 3 3 4 3 3 3 3 3 3 2 2 2 3 3 3 4 5 3 4 5 5 3 2 2 2 1 1 1 0 0 0 0 1 1 1 2 2 2 2
2 2 3 3 3 3 3 3 2 3 3 3 3 2 2 2 2 2 2 2 3 4 3 2 3 3 2 2 2 2 1 1 1 1 0 0 0 1 1 1 2 1 2 2
2 2 2 2 2 2 3 2 2 3 3 3 3 3 3 2 2 2 2 2 2 2 2 2 2 2 2 2 1 1 1 1 1 1 0 0 0 1 1 2 1 1 2 2
Wind_Direction
262 271 271 265 262 256 249 250 257 267 269 274 281 288 292 295 298 301 302 306 311 314 314 315 314 313 312 306 299 289 274 263 257 253 248 244 238 232 226 219 215 214 212 211
265 265 267 267 262 256 253 254 257 264 268 273 281 283 283 285 289 292 297 302 305 309 310 311 309 308 307 304 299 289 277 270 270 264 253 244 240 234 227 223 216 211 212 211
267 273 275 261 251 249 247 246 250 257 264 276 280 280 282 285 288 290 292 297 301 304 308 309 307 304 301 299 298 287 280 278 271 260 253 249 242 234 227 224 220 214 213 213
269 265 250 258 257 247 251 255 255 258 265 271 275 282 284 283 285 289 291 295 299 304 307 309 308 304 301 298 295 288 283 281 278 268 256 249 242 236 230 223 221 217 214 214
246 254 265 267 252 237 247 261 263 263 266 271 280 282 276 279 288 291 294 298 300 302 303 305 307 308 306 300 296 293 292 289 285 275 263 249 241 237 231 222 221 222 216 212
237 249 257 270 255 241 249 263 265 263 269 276 279 276 284 307 300 295 296 298 301 305 306 306 308 310 305 301 299 294 293 291 287 277 264 253 244 239 232 223 221 220 221 216
237 248 260 273 244 201 234 272 314 267 274 276 274 278 296 305 300 298 299 303 304 305 305 306 311 308 301 300 299 303 304 299 295 286 272 263 252 240 226 215 214 216 218 219
228 240 252 222 189 219 256 292 288 285 285 283 283 289 292 296 299 301 303 304 305 304 305 311 314 308 302 303 308 310 306 299 298 296 287 271 253 240 218 205 210 214 212 215
227 244 273 233 232 252 269 276 282 284 288 289 286 288 292 293 298 301 303 304 305 305 305 308 313 310 303 309 315 311 306 301 299 298 289 268 249 233 215 206 209 215 210 212
254 258 262 262 262 266 268 269 277 280 287 289 285 287 290 293 296 301 305 305 304 305 304 307 315 315 307 312 313 309 306 303 300 297 295 284 260 233 217 213 211 212 215 214
255 263 270 262 259 264 266 268 273 280 281 279 280 283 289 291 295 299 301 302 303 302 301 304 312 313 314 313 310 307 304 304 307 305 297 292 279 264 244 236 232 225 220 210
256 263 266 272 273 271 271 270 272 277 279 276 275 279 282 284 290 293 294 298 299 301 303 305 308 310 314 313 307 302 301 304 306 303 296 291 291 301 301 258 256 250 246 230
259 269 272 275 275 275 273 273 275 276 275 278 279 278 278 281 287 290 291 294 295 299 302 303 305 308 312 312 305 297 293 295 297 293 288 290 286 280 293 318 175 187 194 191
263 268 269 270 272 276 277 278 278 276 276 277 280 279 277 278 283 285 289 296 298 298 300 301 305 308 315 315 307 300 297 293 288 285 283 283 275 268 262 248 247 260 157 156
262 261 264 273 278 281 283 283 281 278 280 280 281 280 280 281 284 287 292 297 297 297 301 307 310 313 321 316 308 306 299 291 290 287 281 280 276 264 256 244 217 182 99 132
270 269 267 268 273 279 281 277 275 279 283 286 286 286 287 285 286 288 294 297 294 297 304 308 307 311 317 312 308 304 299 298 297 288 282 280 273 257 244 226 198 183 174 148
262 264 267 269 273 277 277 275 276 280 284 284 285 289 288 287 288 289 295 300 294 294 298 298 303 309 309 305 302 299 298 297 296 291 282 282 281 265 240 218 206 182 175 151
262 268 271 274 275 277 279 281 280 280 282 289 291 286 282 281 283 290 297 301 296 293 295 300 303 306 306 304 302 297 295 293 291 290 293 295 295 275 232 194 184 175 153 142
274 276 281 283 283 278 278 282 285 288 289 288 284 280 279 279 283 287 292 291 288 292 303 308 308 308 308 311 311 298 293 291 293 295 295 291 293 258 204 182 175 170 153 141
298 294 291 296 300 294 290 295 299 296 293 290 285 283 283 286 290 289 289 286 287 297 307 310 313 313 312 311 310 297 289 284 285 290 291 280 272 244 192 171 166 161 152 147
320 319 318 319 318 317 309 305 301 299 301 293 281 278 282 288 292 291 289 289 304 312 308 310 312 311 311 314 312 300 295 292 292 288 277 269 257 210 163 155 153 153 145 139
331 329 326 324 320 319 320 316 308 302 301 297 291 285 284 289 293 293 291 292 307 315 314 309 310 316 324 324 313 309 307 303 298 292 274 249 219 181 159 155 150 142 136 138
325 321 318 317 315 315 317 316 309 301 297 295 291 287 286 291 292 290 300 311 311 314 315 310 321 328 333 332 323 322 327 324 314 304 271 230 222 186 161 153 149 143 141 144
320 321 321 320 317 314 315 319 316 307 301 297 295 293 290 292 298 302 306 314 322 323 321 325 333 340 345 343 336 335 339 341 340 343 13 137 199 163 148 141 141 139 141 144
315 315 314 311 308 307 312 317 319 318 315 312 314 311 300 294 295 306 311 312 321 328 325 332 342 349 348 347 355 353 349 354 356 348 17 82 138 135 137 143 148 148 150 148
305 303 300 298 298 301 305 307 311 314 313 314 319 324 324 321 313 310 313 320 324 329 330 332 340 347 349 357 6 2 355 355 356 359 25 11 123 139 138 135 138 152 151 141
303 304 302 303 305 307 307 303 300 302 303 303 310 319 324 324 321 325 328 328 331 334 338 341 341 342 349 357 5 2 358 357 354 354 0 10 140 142 139 140 147 144 139 137